Orbital Elements at Epoch 2459200.5 (2020-Dec-17.0) TDB
Reference: JPL 13 (heliocentric ecliptic J2000)
Element | Value | Uncertainty (1-sigma) | Units |
e | .2613405708267014 | 9.9756e-08 | |
a | 2.658135467281636 | 3.0878e-08 | au |
q | 1.963456826927553 | 2.7347e-07 | au |
i | 35.5925572548886 | 9.1686e-06 | deg |
node | 50.69382306292937 | 1.5009e-05 | deg |
peri | 203.3931434582925 | 2.8771e-05 | deg |
M | 329.4910958955259 | 3.599e-05 | deg |
tp | 2459334.649234659167 (2021-Apr-30.14923466) | 0.00016007 | TDB |
period | 1582.93868281614 4.33 | 2.7582e-05 7.552e-08 | d yr |
n | .2274251074334346 | 3.9628e-09 | deg/d |
Q | 3.352814107635719 | 3.8948e-08 | au |
|
| | Orbit Determination Parameters
Additional Information
|